Regional Weather Roundup
Issued by NWS Sterling, VA

Home | Current Version | Previous Version | Text Only | Print | Product List | Glossary On
Versions: 1 2 3 4 5 6 7 8 9 10 11 12 13 14 15 16 17 18 19 20 21 22 23 24 25 26 27 28 29 30 31 32 33 34 35 36 37 38 39 40 41 42 43 44 45 46 47 48 49 50
000
ASUS41 KLWX 011010
RWRLWX

REGIONAL WEATHER ROUNDUP
NATIONAL WEATHER SERVICE BALTIMORE MD/WASHINGTON DC
600 AM EDT TUE SEP 01 2015

Note: "FAIR" indicates few or no clouds below 12,000 feet
with no significant weather and/or obstructions to visibility.
 TC=TEMPERATURE CELSIUS

 * =Non NWS site. Station does not report precipitation (e.g. rain,
    snow, etc.), thunder, or fog.

DCZ001-MDZ009-015-VAZ040>042-051-053>054-011100-
WASHINGTON METRO

CITY           SKY/WX    TMP DP  RH WIND       PRES   REMARKS
WASHINGTON NAT PTCLDY    72  69  90 SW3       30.04S
DULLES         CLEAR     66  65  96 CALM      30.05R
ANDREWS AFB    CLEAR     70  69  96 W5        30.03S
FT BELVOIR     CLEAR     66  66 100 CALM      30.04R
COLLEGE PARK*  CLEAR     70  70 100 CALM      30.03S
LEESBURG*      CLEAR     68  68 100 CALM      30.06R
MANASSAS*      CLOUDY    68  68 100 CALM      30.05R VSB<1/4
GAITHERSBURG*  CLEAR     66  64  94 CALM      30.08S

$$

MDZ006>007-011-014-011100-
BALTIMORE METRO

CITY           SKY/WX    TMP DP  RH WIND       PRES   REMARKS
BWI AIRPORT    CLEAR     70  68  93 CALM      30.02S
MD SCIENCE CTR   N/A     74  68  81 MISG      30.03S
MARTIN STATE   CLEAR     73  72  94 CALM      30.03
ANNAPOLIS      CLEAR     73  70  90 NW3       30.02S
FORT MEADE*    CLEAR     63  63 100 CALM      30.06R

$$

MDZ012-015-019>023-011100-
MARYLAND EASTERN SHORE

CITY           SKY/WX    TMP DP  RH WIND       PRES   REMARKS
OCEAN CITY     CLEAR     69  67  93 CALM      30.04S
SALISBURY      PTCLDY    65  64  97 CALM      30.03S
BAY BRIDGE AP*   N/A     72  70  94 CALM      30.03S
CAMBRIDGE*     MOCLDY    68  64  88 CALM      30.03R
EASTON*        CLEAR     72  72 100 CALM      30.07

$$

MDZ017>025-011100-
SOUTHERN MARYLAND

CITY           SKY/WX    TMP DP  RH WIND       PRES   REMARKS
PATUXENT RIVER PTCLDY    66  65  96 CALM      30.03S FOG
ST INIGOES     CLOUDY    69  67  93 CALM      30.03R
LEONARDTOWN*   NOT AVBL

$$

MDZ003>005-011100-
NORTH CENTRAL MARYLAND

CITY           SKY/WX    TMP DP  RH WIND       PRES   REMARKS
FREDERICK*     CLEAR     64  64 100 CALM      30.07S FOG
HAGERSTOWN APT CLEAR     70  65  84 CALM      30.07S
WESTMINSTER*   CLEAR     70  64  83 CALM      30.06S

$$

MDZ501>502-011100-
WESTERN MARYLAND

CITY           SKY/WX    TMP DP  RH WIND       PRES   REMARKS
OAKLAND*       CLEAR     61  59  94 SW3       30.20S
CUMBERLAND*    CLEAR     64  64 100 CALM      30.14R

$$

VAZ025>031-011100-
SHENANDOAH VALLEY

CITY           SKY/WX    TMP DP  RH WIND       PRES   REMARKS
WINCHESTER*    CLEAR     64  63  94 CALM      30.08R
FRONT ROYAL*   FAIR      66  61  82 CALM      30.08R
LURAY*         FAIR      63  63 100 CALM      30.10R
NEW MARKET*    FAIR      61  60  97 CALM      30.10R
STAUNTON*      CLEAR     63  61  92 CALM      30.13S FOG
WAYNESBORO*    FAIR      64  61  91 CALM      30.12S

$$

WVZ021-048>050-054>055-011100-
EASTERN WEST VIRGINIA PANHANDLE

CITY           SKY/WX    TMP DP  RH WIND       PRES   REMARKS
MARTINSBURG    CLEAR     63  62  97 CALM      30.07S FOG
PETERSBURG*    FOG       63  63  99 CALM      30.13S VSB 1/4

$$

VAZ036>039-050-011100-
CENTRAL FOOTHILLS

CITY           SKY/WX    TMP DP  RH WIND       PRES   REMARKS
CHARLOTTESVILL CLEAR     65  62  90 CALM      30.06S
CULPEPER*      CLOUDY    64  64 100 CALM      30.06R FOG
ORANGE*        FOG       68  68 100 CALM      30.07R VSB 1/4
GORDONSVILLE*  FOG       67  67 100 CALM      30.05S VSB 1/4
WARRENTON*     FOG       67  67 100 CALM      30.04S VSB<1/4

$$

VAZ055>057-011100-
NORTH AND CENTRAL PIEDMONT

CITY           SKY/WX    TMP DP  RH WIND       PRES   REMARKS
FREDERICKSBRG* CLOUDY    72  72 100 CALM      30.04R
STAFFORD*      CLOUDY    69  67  95 CALM      30.08S FOG

$$

NCZ024-NYZ072-PAZ021-071-VAZ022-071-011100-
OTHER REGIONAL OBSERVATIONS

CITY           SKY/WX    TMP DP  RH WIND       PRES   REMARKS
NEW YORK CITY  CLEAR     76  65  68 CALM      30.04R
PHILADELPHIA   CLEAR     73  69  87 W5        30.02F
PITTSBURGH     CLEAR     67  63  87 CALM      30.11S
ROANOKE        CLEAR     66  63  90 CALM      30.13S
RICHMOND       CLOUDY    72  69  90 CALM      30.05R
RALEIGH        FOG       69  68  96 CALM      30.08R VSB 1/2

$$

ANZ530>537-011100-
MARINE OBSERVATIONS

STATION/POSITION TIME  TEMP    WIND        PRES
                       AIR SEA DIR/SP/G
                 (UTC) (F)     (DEG/KT/KT) (MB)
THOMAS PT LIGHT  0900   73 78  270/  6/  7 1017.2
BALT KEY BRIDGE  0900   74     240/  4/  6 1016.5F
COVE POINT       0900   72     280/  7/ 12 1017.3F
LEWISETTA        0900   71 79  280/  4/  5 1016.7F
SOLOMONS ISLAND  0900      80                N/A
PINEY POINT      0905          290/  5/  6   N/A

$$



USA.gov is the U.S. government's official web portal to all federal, state and local government web resources and services.